Location: *
(50.0228°S, 177.2688°W)
Time: 18:36:12
(UTC+00:00)

Gbstr 26 Del rocket - Pass Details

Date: 07 April 2020
Orbit: 493 x 1263 km, 51.8° (Epoch: 02 June)

Event Time Altitude Azimuth Distance (km) Brightness Sun altitude
Rises 07:40:27 0° 273° (W) 3,574 8.2 -22.7°
Reaches altitude 10° 07:42:50 10° 271° (W) 2,739 7.3 -23.1°
Maximum altitude 07:49:34 78° 184° (S) 1,150 4.3 -24.1°
Enters shadow 07:52:32 41° 104° (ESE) 1,635 4.7 -24.6°
